CORVUS BC3

Last updated on Sat Apr 13 2024 01:03:33 GMT+0100 (British Summer Time)

1 43118U 18004H 24103.19863952 .00100309 00000+0 85929-3 0 9991 2 43118 97.2902 186.7030 0004242 142.5910 217.5648 15.69102712348504
UTC large
Height (km)
Speed (km/s)
/
Latitude / Longitude
Inclination (degrees)
Orbital Period (minutes)
Azimuth
Elevation
Range (km)
Doppler Factor

Next 0 passes for location: London (51.5072 / 0.1276)

Sorry there are no passes over London.